Date String (YYYY-MM-DD hh:mm:ss) UTC,Instrument flags,Ambient pressure (hPa),Sample flow (lpm),Bypass flow (lpm),Sample temperature (°C),Ambient temperature (°C),ASC tube jacket temperature (°C),LED temperature (°C),Box temperature (°C),Sample RH (%),Span deviation,Mass concentration (μg/m³),Mass concentration (μg/m³),Mass concentration (μg/m³)
DateTimeUTC,F1_M11,P_M11,Q1_M11,Q2_M11,T1_M11,T2_M11,T3_M11,T4_M11,T5_M11,U1_M11,ZSPAN_M11,X0_M11,X2_M11,X1_M11
2022-08-06 18:00:00,,0828.9,5.00,0.00,31.5,27.3,00.0,39.5,31.9,34.0,0001.9,0018.23,0008.10,0006.95
2022-08-06 18:01:00,,0828.8,4.99,0.00,31.4,27.4,00.0,39.5,31.8,34.4,0001.9,0018.70,0008.13,0006.99
2022-08-06 18:02:00,,0828.8,4.99,0.00,31.3,27.6,00.0,39.5,31.8,34.7,0001.8,0018.81,0008.19,0007.02
2022-08-06 18:03:00,,0828.8,4.99,0.00,31.2,27.8,00.0,39.5,31.8,34.9,0001.9,0019.87,0008.26,0007.05
2022-08-06 18:04:00,,0828.8,5.00,0.00,31.2,27.9,00.0,39.5,31.9,35.0,0002.1,0020.30,0008.29,0007.07
2022-08-06 18:05:00,,0828.9,5.01,0.00,31.3,28.1,00.0,39.5,32.0,34.8,0002.3,0019.92,0008.34,0007.10
2022-08-06 18:06:00,,0828.9,5.00,0.00,31.3,28.2,00.0,39.5,32.0,34.8,0002.2,0018.44,0008.35,0007.14
2022-08-06 18:07:00,,0828.9,5.01,0.00,31.3,27.8,00.0,39.5,31.9,34.6,0002.5,0017.77,0008.38,0007.17
2022-08-06 18:08:00,,0828.9,4.99,0.00,31.3,27.3,00.0,39.4,31.8,34.7,0002.7,0018.03,0008.42,0007.20
2022-08-06 18:09:00,,0828.8,5.00,0.00,31.2,27.3,00.0,39.4,31.8,35.2,0002.4,0017.36,0008.46,0007.22
2022-08-06 18:10:00,,0829.1,5.01,0.00,31.2,27.3,00.0,39.4,31.8,35.3,0002.2,0016.50,0008.54,0007.24
2022-08-06 18:11:00,,0828.9,5.00,0.00,31.4,27.5,00.0,39.4,31.9,34.6,0001.6,0017.29,0008.63,0007.27
2022-08-06 18:12:00,,0828.9,5.01,0.00,31.5,27.7,00.0,39.4,32.0,34.3,0001.3,0017.09,0008.64,0007.29
2022-08-06 18:13:00,,0828.9,4.98,0.00,31.5,27.9,00.0,39.4,32.0,34.3,0001.1,0017.07,0008.66,0007.32
2022-08-06 18:14:00,,0829.1,5.01,0.00,31.5,28.1,00.0,39.4,32.0,34.3,0001.2,0015.94,0008.65,0007.36
2022-08-06 18:15:00,,0829.0,5.00,0.00,31.5,28.2,00.0,39.5,32.1,34.3,0001.6,0015.96,0008.76,0007.41
2022-08-06 18:16:00,,0829.2,4.99,0.00,31.5,28.1,00.0,39.5,32.0,34.3,0001.8,0016.37,0008.85,0007.48
2022-08-06 18:17:00,,0829.2,5.00,0.00,31.4,27.6,00.0,39.5,31.8,34.5,0001.7,0016.92,0008.94,0007.49
2022-08-06 18:18:00,,0829.1,5.00,0.00,31.4,27.3,00.0,39.5,31.8,34.5,0001.5,0017.85,0009.03,0007.53
2022-08-06 18:19:00,,0828.7,5.00,0.00,31.2,27.3,00.0,39.5,31.7,34.4,0001.0,0017.96,0009.06,0007.55
2022-08-06 18:20:00,,0828.8,5.01,0.00,31.1,27.4,00.0,39.5,31.7,34.9,0000.7,0018.92,0009.09,0007.57
2022-08-06 18:21:00,,0829.0,5.00,0.00,31.2,27.6,00.0,39.4,31.8,35.1,0001.0,0018.68,0009.09,0007.59
2022-08-06 18:22:00,,0829.0,5.00,0.00,31.4,27.8,00.0,39.4,32.0,34.9,0001.7,0018.21,0009.10,0007.61
2022-08-06 18:23:00,,0828.9,4.99,0.00,31.5,28.0,00.0,39.4,32.1,34.3,0001.9,0018.52,0009.10,0007.61
2022-08-06 18:24:00,,0828.8,5.01,0.00,31.6,28.2,00.0,39.5,32.1,34.3,0002.4,0019.13,0009.10,0007.63
2022-08-06 18:25:00,,0828.7,5.00,0.00,31.6,28.3,00.0,39.5,32.1,34.2,0002.3,0019.28,0009.09,0007.63
2022-08-06 18:26:00,,0828.7,4.99,0.00,31.6,28.0,00.0,39.5,32.0,33.6,0002.3,0019.19,0009.03,0007.62
2022-08-06 18:27:00,,0828.9,5.00,0.00,31.5,27.5,00.0,39.5,31.9,33.7,0001.7,0018.75,0008.97,0007.59
2022-08-06 18:28:00,,0829.2,5.00,0.00,31.5,27.4,00.0,39.5,31.9,33.9,0001.6,0018.11,0008.85,0007.58
2022-08-06 18:29:00,,0828.9,5.00,0.00,31.3,27.4,00.0,39.5,31.7,34.2,0001.6,0017.32,0008.80,0007.57
2022-08-06 18:30:00,,0828.8,5.00,0.00,31.2,27.6,00.0,39.5,31.7,34.4,0002.0,0017.52,0008.85,0007.56
2022-08-06 18:31:00,,0828.9,5.00,0.00,31.2,27.7,00.0,39.5,31.8,34.7,0002.2,0016.68,0008.92,0007.59
2022-08-06 18:32:00,,0829.1,5.00,0.00,31.1,27.9,00.0,39.5,31.9,34.8,0002.2,0017.46,0008.98,0007.62
2022-08-06 18:33:00,,0829.0,4.99,0.00,31.1,28.1,00.0,39.5,32.0,35.2,0001.5,0018.84,0008.99,0007.62
2022-08-06 18:34:00,,0828.9,5.00,0.00,31.3,28.3,00.0,39.5,32.1,34.5,0001.5,0019.03,0009.05,0007.64
2022-08-06 18:35:00,,0828.9,5.01,0.00,31.4,28.0,00.0,39.4,32.1,34.2,0001.1,0019.23,0009.05,0007.63
2022-08-06 18:36:00,,0828.9,4.99,0.00,31.4,27.5,00.0,39.4,31.9,34.2,0001.2,0019.69,0009.09,0007.63
2022-08-06 18:37:00,,0828.9,4.99,0.00,31.4,27.4,00.0,39.4,31.9,34.6,0001.2,0019.73,0009.13,0007.63
2022-08-06 18:38:00,,0828.7,5.02,0.00,31.3,27.4,00.0,39.4,31.8,34.5,0001.7,0019.87,0009.15,0007.62
2022-08-06 18:39:00,,0828.7,4.99,0.00,31.2,27.5,00.0,39.4,31.7,34.6,0001.7,0020.48,0009.16,0007.62
2022-08-06 18:40:00,,0828.5,5.02,0.00,31.1,27.7,00.0,39.4,31.8,34.7,0001.9,0021.06,0009.20,0007.63
2022-08-06 18:41:00,,0828.5,4.99,0.00,31.1,27.9,00.0,39.4,31.9,34.6,0001.6,0021.75,0009.14,0007.63
2022-08-06 18:42:00,,0828.5,5.01,0.00,31.1,28.1,00.0,39.4,31.9,34.8,0001.4,0022.69,0009.07,0007.62
2022-08-06 18:43:00,,0828.4,5.01,0.00,31.1,28.2,00.0,39.4,32.0,35.0,0001.5,0022.62,0009.01,0007.59
2022-08-06 18:44:00,,0828.4,4.99,0.00,31.2,28.0,00.0,39.4,32.0,34.6,0001.7,0021.90,0008.96,0007.57
2022-08-06 18:45:00,,0828.4,4.99,0.00,31.2,27.5,00.0,39.4,31.9,34.7,0001.3,0021.69,0008.94,0007.54
2022-08-06 18:46:00,,0828.3,5.01,0.00,31.2,27.3,00.0,39.3,31.9,34.4,0001.7,0021.69,0008.97,0007.52
2022-08-06 18:47:00,,0828.3,4.99,0.00,31.1,27.4,00.0,39.3,31.8,34.6,0001.7,0021.29,0008.94,0007.50
2022-08-06 18:48:00,,0828.3,5.00,0.00,31.0,27.5,00.0,39.3,31.7,34.7,0000.8,0020.67,0008.87,0007.47
2022-08-06 18:49:00,,0828.3,5.00,0.00,31.0,27.7,00.0,39.3,31.7,34.8,0000.4,0020.58,0008.85,0007.45
2022-08-06 18:50:00,,0828.3,5.00,0.00,31.0,27.9,00.0,39.3,31.8,35.2,0000.4,0020.15,0008.85,0007.41
2022-08-06 18:51:00,,0828.3,4.99,0.00,31.1,28.1,00.0,39.3,32.0,34.8,0000.1,0019.54,0008.74,0007.36
2022-08-06 18:52:00,,0828.3,5.01,0.00,31.3,28.3,00.0,39.3,32.1,34.3,0000.1,0019.29,0008.70,0007.30
2022-08-06 18:53:00,,0828.3,4.99,0.00,31.3,28.3,00.0,39.3,32.1,34.2,0000.0,0019.52,0008.65,0007.23
2022-08-06 18:54:00,,0828.3,4.99,0.00,31.3,27.8,00.0,39.3,32.0,34.1,0000.0,0019.10,0008.59,0007.19
2022-08-06 18:55:00,,0828.3,5.01,0.00,31.3,27.4,00.0,39.3,31.9,34.4,0000.0,0018.46,0008.57,0007.16
2022-08-06 18:56:00,,0828.3,5.01,0.00,31.2,27.4,00.0,39.3,31.9,34.6,0000.0,0018.00,0008.51,0007.14
2022-08-06 18:57:00,,0828.3,4.98,0.00,31.1,27.4,00.0,39.3,31.7,34.8,0000.0,0018.20,0008.46,0007.13
2022-08-06 18:58:00,,0828.3,5.00,0.00,31.0,27.6,00.0,39.3,31.7,35.2,0000.0,0018.69,0008.49,0007.11
2022-08-06 18:59:00,,0828.3,4.99,0.00,31.2,27.8,00.0,39.3,31.9,34.8,0000.0,0018.96,0008.52,0007.08
